User: anonymous   Login
Location: ???????
(55.4362°N, 38.1183°E)
Time: 11:29:16
(UTC+00:00)
Language:

Cosmos 968 Rocket - Orbit

View from above orbital plane
View from above orbital plane
View from above satellite
View from above satellite

Ground track
Ground track

The orbit data is extracted from the following two-line orbital elements,

1 10521U 77119B   21260.74418288  .00000025  00000-0  16058-4 0  9998
2 10521  74.0253 271.4776 0022387 265.7872  94.0725 14.40837881295686
Epoch (UTC): 17 September 2021 17:51:37
Eccentricity: 0.0022387
inclination: 74.0253°
perigee height: 740 km
apogee height: 772 km
right ascension of ascending node: 271.4776°
argument of perigee: 265.7872°
revolutions per day: 14.40837881
mean anomaly at epoch: 94.0725°
orbit number at epoch: 29568

The dashed part of the orbit path shows where the satellite is in the earth's shadow,  

DLR